GFSSE_850_rhum_003.txt.gz
RH
86 90 57 52 49 48 64 72 76 76 76 76 76 77 82 75 71 69 70 71 64 62 68 72 71 66 62 59 58 54 50 46 43 52 56 55 54 52 44 36 41 87 70
100 99 57 52 47 48 41 42 63 65 79 75 65 74 82 79 82 85 85 90 88 83 79 79 83 77 67 65 67 65 58 52 40 38 52 59 48 51 36 34 78 90 62
99 91 78 52 53 47 43 39 45 54 60 77 81 70 82 87 80 87 81 69 83 98 89 81 83 78 73 74 74 72 65 61 52 47 43 86 88 39 33 39 64 90 46
93 91 89 62 62 50 38 29 26 40 62 66 54 85 84 78 58 58 69 51 49 73 86 93 88 87 80 83 80 78 70 62 52 64 54 81 77 70 41 42 38 61 34
99 93 70 61 65 59 49 38 30 37 39 41 76 88 86 83 82 78 75 53 47 66 91 94 76 84 82 84 87 83 69 65 65 62 77 73 72 75 48 49 58 61 48
92 97 68 65 65 59 58 52 43 31 27 40 47 45 75 88 93 82 77 63 66 92 97 99 97 86 76 85 90 88 72 75 78 78 68 74 75 89 74 50 75 91 90
91 95 75 60 60 61 60 58 58 52 41 35 32 32 32 39 73 89 89 95 91 74 87 93 90 84 73 75 60 72 77 62 74 76 65 72 82 80 77 53 82 94 94
81 94 94 66 60 53 49 52 60 65 66 66 63 60 45 26 31 56 70 74 66 74 73 69 68 68 63 57 43 32 84 67 73 79 65 68 78 78 72 72 78 99 96
76 82 86 89 68 57 58 55 61 63 66 71 75 71 68 66 40 35 36 43 58 58 97 90 88 81 77 73 53 53 43 57 44 81 70 71 79 74 68 78 66 80 93
78 74 78 80 83 92 93 63 54 52 56 63 67 68 69 72 65 59 42 47 58 64 76 96 95 88 78 76 65 74 62 45 46 68 86 80 79 77 65 70 88 85 72
66 68 69 84 92 89 76 69 70 72 61 65 53 54 62 99 59 60 66 65 58 73 74 74 78 93 82 77 75 66 65 63 93 87 82 95 85 78 67 47 93 91 84
51 53 55 31 62 73 76 68 93 95 89 85 82 60 90 62 80 85 77 77 79 84 82 89 97 99 98 91 96 72 57 79 79 92 90 84 83 78 66 44 74 89 88
46 49 42 36 46 75 82 86 88 67 88 88 60 66 50 44 43 53 66 70 55 62 52 47 69 73 79 95 99 100 90 82 81 78 76 70 65 63 59 53 52 91 91
42 49 49 40 59 77 78 79 86 86 88 85 71 60 30 26 10 16 21 18 30 50 47 44 78 86 84 74 67 86 90 94 89 84 87 82 72 66 59 54 53 69 78
39 47 53 59 67 75 80 79 78 72 65 60 73 36 79 78 26 32 27 35 41 42 49 59 69 63 67 73 70 85 72 78 72 74 60 62 78 83 68 60 44 64 79
35 43 50 57 60 63 64 57 45 42 38 41 35 21 19 39 19 82 59 45 55 63 67 74 70 71 74 61 84 85 80 79 96 82 67 58 69 75 74 70 59 46 81
33 38 40 44 39 35 31 30 41 35 36 48 39 18 18 27 16 16 49 70 46 14 23 39 50 53 61 74 69 81 91 88 88 87 82 86 73 74 77 78 83 48 48
31 34 35 25 37 33 42 38 37 42 46 55 59 31 19 20 21 25 51 41 14 25 23 18 53 66 91 84 80 85 96 87 94 79 79 68 93 91 73 78 86 75 49
31 32 33 32 35 38 38 35 42 33 41 47 54 55 25 26 22 26 43 44 21 45 39 20 33 44 68 85 88 88 83 82 92 92 96 97 85 73 95 93 82 59 40
32 32 32 35 34 36 36 35 39 41 44 46 45 46 52 48 38 45 47 57 54 50 52 59 52 49 51 55 71 53 56 74 88 92 88 98 99 90 75 86 90 78 54
33 36 34 35 35 36 34 34 35 40 42 42 42 46 50 43 49 50 44 45 50 47 53 60 58 55 50 49 56 53 44 42 41 67 88 88 100 87 76 76 91 89 79
36 36 33 33 35 38 32 34 33 34 34 38 40 48 56 52 51 49 46 48 46 49 54 54 57 57 52 47 47 50 48 47 55 89 91 94 99 98 90 84 76 75 82
40 39 37 32 33 36 34 31 35 38 38 37 38 44 51 57 56 54 54 52 55 58 54 54 55 56 51 52 49 45 44 47 56 46 61 92 95 99 97 99 90 76 77
39 42 41 37 34 34 37 35 31 32 31 30 30 32 34 42 52 56 55 52 53 57 59 58 54 54 57 55 54 52 48 45 48 53 45 39 51 67 99 100 99 98 83
34 42 45 43 39 35 34 38 34 35 38 36 37 40 45 49 52 56 55 54 57 56 54 55 57 59 61 61 60 56 54 51 49 47 48 46 47 44 55 76 100 99 92
34 42 47 47 44 38 38 38 41 36 39 40 39 44 48 46 46 46 50 53 59 59 57 58 58 59 60 60 62 62 59 58 54 50 47 46 42 44 54 52 54 98 100

GFSSE_850_rhum_006.txt.gz
RH
83 76 51 47 42 53 68 72 74 73 74 78 76 77 76 72 69 66 66 71 65 62 61 57 58 63 60 55 50 44 36 29 33 34 30 31 26 39 46 42 85 89 70
88 71 51 48 42 41 46 59 63 68 75 81 81 87 88 74 74 62 72 88 88 81 84 86 84 78 69 62 60 56 48 39 36 30 35 39 40 35 40 51 83 94 82
91 87 55 47 43 39 42 51 68 77 74 81 78 78 89 86 85 73 60 37 58 62 59 71 91 89 77 70 66 62 60 51 44 33 38 46 74 42 27 36 92 95 88
90 86 77 55 52 42 32 30 48 68 80 84 62 58 84 85 82 87 72 52 50 52 48 48 60 98 85 84 78 74 72 66 54 43 41 83 93 82 63 32 62 90 89
88 77 57 55 53 48 43 33 29 43 56 67 67 87 88 86 87 82 78 64 76 70 61 84 90 99 96 89 87 84 82 75 59 57 57 69 76 76 73 32 35 42 68
81 53 49 48 42 45 44 46 41 35 28 26 36 67 77 83 87 83 75 73 62 59 75 83 87 62 99 92 90 86 83 75 69 70 60 73 69 74 88 62 40 53 57
52 46 47 45 45 46 48 49 52 50 45 41 35 26 22 25 42 72 81 87 88 88 89 69 50 61 76 67 82 82 87 70 64 70 79 69 69 64 83 77 46 83 82
76 74 59 60 55 54 52 50 56 58 57 53 47 52 48 28 21 26 44 61 60 64 56 53 64 74 73 76 64 48 63 68 51 66 72 65 68 74 66 66 50 89 96
71 77 81 82 79 80 78 71 56 54 53 51 53 49 59 60 53 44 36 34 31 26 41 83 84 89 81 59 48 43 58 52 49 53 70 76 69 77 79 64 65 72 86
71 70 74 75 81 89 87 82 54 57 55 54 54 55 59 64 66 71 69 60 62 54 53 72 89 88 89 86 75 57 38 45 48 46 79 73 83 82 81 74 70 64 87
61 62 69 76 86 90 80 69 74 88 83 74 66 58 78 89 65 77 70 84 81 83 77 76 81 78 78 81 85 87 61 59 63 59 82 84 78 83 80 73 64 83 74
48 49 56 39 42 46 78 69 91 89 93 98 98 74 96 98 97 76 64 85 74 72 82 92 88 82 78 78 98 99 90 62 75 89 90 79 83 87 78 72 58 80 90
41 48 45 33 30 62 88 77 81 80 76 93 89 95 87 55 43 51 54 70 63 31 48 50 59 47 78 83 76 95 96 78 82 80 79 85 83 75 71 64 52 48 84
36 44 39 26 26 34 73 76 79 82 75 87 59 31 33 29 18 15 16 17 15 18 26 22 22 41 61 72 72 77 78 89 86 93 88 89 86 83 77 66 61 45 61
35 41 41 24 27 32 61 63 66 68 54 51 35 30 51 60 28 36 24 22 24 31 37 35 34 47 50 60 63 67 72 80 73 68 65 82 83 82 83 82 75 51 45
32 37 38 32 38 43 73 52 43 42 34 34 37 25 20 34 32 73 66 50 38 26 36 61 75 74 67 64 75 75 71 73 85 78 76 76 74 68 74 82 90 58 56
31 35 42 41 48 42 50 43 36 40 47 49 40 18 19 22 19 23 34 60 64 19 17 12 18 38 60 76 78 88 86 84 92 90 84 88 88 68 71 74 84 86 68
30 33 38 36 38 35 41 43 37 43 40 53 57 33 20 19 20 26 47 43 27 44 56 31 20 15 32 59 74 73 76 88 90 93 95 82 78 81 75 75 87 84 83
30 32 34 35 29 39 39 40 39 41 39 49 59 50 31 24 23 32 46 40 30 43 50 44 38 37 32 25 44 77 75 74 75 78 82 88 81 88 86 78 72 75 77
30 33 33 34 35 36 38 34 40 39 38 43 46 51 48 45 35 30 47 46 45 50 52 54 48 51 53 50 48 43 36 31 39 47 73 77 78 82 87 80 80 71 78
31 33 35 34 36 36 38 38 37 40 42 44 43 43 47 49 47 44 45 46 47 49 51 53 54 57 55 53 50 48 48 41 46 45 55 71 76 89 97 91 83 90 87
34 35 36 36 35 36 38 36 35 35 38 40 42 43 44 44 48 50 50 48 50 49 50 52 57 57 56 54 53 52 56 53 39 63 62 73 98 98 97 98 99 99 100
33 38 38 38 35 34 36 36 34 34 34 36 37 39 44 40 53 55 54 55 54 54 58 58 54 53 56 59 54 54 60 60 56 50 45 38 47 50 61 81 100 99 95
30 34 39 40 38 35 34 35 35 33 35 35 32 31 35 42 51 55 56 56 55 52 53 55 58 58 59 58 61 64 62 60 60 62 58 53 48 37 37 45 58 85 100
29 31 36 39 40 40 37 35 35 35 34 34 36 35 35 39 43 48 54 57 57 55 54 53 53 44 48 59 65 69 68 67 66 66 66 61 55 50 47 42 44 55 58
30 31 32 39 41 41 39 38 36 36 36 39 39 39 40 44 47 49 51 50 52 54 55 53 42 51 50 44 46 47 62 67 65 62 60 59 57 54 50 46 42 42 48

GFSSE_850_rhum_009.txt.gz
RH
84 56 50 49 58 67 72 78 79 79 77 76 73 76 74 60 46 43 46 51 54 54 55 51 55 60 59 54 51 47 44 38 34 42 40 51 45 47 42 26 32 68 61
76 57 44 41 42 49 62 66 68 69 74 79 79 81 83 77 70 65 63 44 37 49 44 59 55 74 76 76 64 56 54 43 30 26 29 39 41 36 33 28 51 75 78
87 82 46 41 41 42 44 56 64 71 81 78 83 81 86 87 82 79 75 71 47 40 37 58 50 72 79 87 78 69 66 58 46 37 29 30 40 39 33 26 37 61 82
92 87 62 47 38 33 29 29 44 53 65 71 47 48 78 88 88 83 78 70 52 50 46 52 56 71 61 74 94 79 75 69 63 49 44 78 69 85 78 35 38 68 85
73 61 49 46 43 39 34 30 29 30 35 54 39 68 77 85 87 86 82 73 66 62 51 61 64 60 54 58 87 98 89 80 70 58 54 73 81 85 79 74 36 58 70
56 46 44 41 37 42 41 38 36 34 31 27 24 30 59 71 75 84 81 68 74 71 70 61 74 75 63 55 57 66 90 87 72 52 59 79 80 78 67 82 50 41 51
54 53 50 48 42 38 36 35 37 39 40 40 39 37 27 24 34 48 66 68 65 62 63 67 73 75 68 63 52 73 79 83 71 50 55 77 86 72 66 65 75 44 56
69 71 73 73 68 54 50 45 43 43 45 46 51 53 52 43 34 46 53 56 72 73 73 57 38 42 70 60 65 74 76 69 55 56 56 84 82 78 72 62 70 53 78
73 77 78 77 82 72 62 73 53 48 48 48 51 59 53 59 62 60 61 54 47 49 48 46 39 57 73 74 83 78 71 57 66 54 60 76 69 80 75 75 66 58 90
72 77 81 75 81 78 54 73 64 68 68 63 55 61 55 54 56 58 71 79 83 80 72 65 68 69 71 83 82 79 66 61 68 69 65 68 66 80 82 79 75 66 71
63 54 62 86 71 57 70 71 68 77 69 73 67 63 70 79 60 57 53 68 87 91 89 83 82 83 82 79 80 75 66 63 70 67 60 71 82 76 78 78 75 61 67
54 44 30 27 30 39 87 71 74 83 79 63 58 60 63 64 43 40 37 49 55 61 71 69 75 84 84 78 73 69 65 62 65 73 93 90 85 84 81 78 78 69 60
40 37 31 26 25 47 83 75 76 80 78 78 67 60 72 64 52 27 22 22 41 59 26 55 50 52 77 75 81 80 87 91 64 64 88 93 95 95 91 87 82 70 61
35 34 30 29 24 41 58 64 71 71 65 51 52 45 35 22 18 18 23 22 18 16 20 29 36 41 39 43 60 78 77 81 78 67 77 82 87 91 92 93 81 74 74
32 34 35 31 23 31 46 61 75 71 64 65 60 37 39 40 35 27 27 27 29 26 24 28 28 34 38 47 55 62 78 78 73 78 82 76 84 85 87 95 94 86 82
28 32 35 32 24 26 30 36 53 62 61 56 40 32 39 41 44 35 46 33 30 31 27 25 28 31 36 40 48 68 77 77 73 83 80 81 78 71 71 81 84 80 89
27 31 32 33 35 38 38 36 41 36 33 29 25 26 22 21 30 31 37 32 27 35 21 26 20 17 23 39 57 55 55 74 83 85 91 100 78 88 86 85 79 73 75
26 30 32 33 35 39 37 39 35 32 34 33 27 29 28 21 21 28 32 31 32 23 22 25 26 25 23 20 21 45 67 72 79 85 89 88 96 97 88 86 75 78 72
25 28 31 32 35 30 31 43 46 41 41 40 42 28 35 30 21 26 43 36 42 36 39 35 39 36 33 33 36 37 35 34 29 31 47 70 81 86 86 85 84 91 82
25 27 31 32 33 34 34 39 40 41 40 41 48 52 38 36 31 28 42 46 46 46 50 49 46 42 46 50 45 48 52 46 40 40 41 34 40 49 83 87 82 86 86
26 28 30 33 33 33 35 36 36 36 34 33 42 44 47 48 43 36 41 48 47 49 50 50 47 52 47 46 53 50 47 46 50 40 57 58 55 85 94 95 87 92 96
28 29 29 29 33 35 35 35 35 34 34 36 37 41 44 45 44 44 40 45 48 47 47 47 49 53 55 54 54 57 56 50 51 54 51 47 48 47 49 71 92 99 99
26 28 29 31 34 37 37 34 35 37 36 35 38 43 43 44 45 44 48 52 52 53 53 53 56 55 52 58 62 57 61 62 61 61 63 53 50 47 44 39 44 52 60
28 29 31 33 35 38 40 37 34 34 35 35 34 34 37 39 39 41 48 55 56 57 54 56 56 53 63 59 47 38 44 56 72 74 65 69 63 58 53 50 49 43 41
31 31 31 32 32 32 34 40 40 38 37 35 36 36 36 39 40 54 56 59 58 57 61 69 62 54 54 44 38 53 61 61 58 62 66 60 63 57 54 53 50 48 45
33 34 34 34 34 35 36 36 36 40 41 41 38 37 38 39 43 52 52 53 55 55 57 61 59 55 37 29 29 26 29 36 43 52 63 63 60 59 55 44 47 53 50

GFSSE_850_rhum_012.txt.gz
RH
69 57 50 46 38 52 67 73 76 78 68 70 72 65 50 47 47 43 41 44 43 47 50 52 48 44 41 44 56 58 54 46 42 44 44 41 53 57 44 48 68 60 47
74 51 44 40 48 56 59 64 64 72 63 71 69 68 63 53 52 49 50 54 59 53 51 58 62 62 55 49 53 60 66 64 52 44 38 46 49 48 46 49 65 75 60
76 51 41 39 37 40 41 45 58 64 69 63 69 71 75 71 68 63 68 76 60 52 52 54 56 47 76 75 62 58 62 77 70 55 41 45 58 56 46 50 63 59 75
74 65 48 40 34 33 32 41 46 50 61 58 40 55 74 83 80 78 78 78 64 64 54 56 52 62 73 69 66 63 60 64 71 66 47 54 79 75 80 58 50 49 81
70 78 54 44 37 32 28 28 28 30 38 47 33 61 60 74 87 87 83 81 80 69 68 60 62 63 62 58 62 45 48 63 68 71 54 74 74 84 84 76 69 54 82
60 58 48 39 32 29 30 31 34 33 30 28 26 31 60 80 88 91 90 84 76 75 75 71 65 63 75 66 60 51 51 58 74 76 61 64 79 70 70 73 68 54 50
51 48 42 38 36 35 38 40 41 40 40 40 37 38 30 27 42 69 72 65 66 68 68 73 71 69 79 64 60 56 58 63 98 95 66 70 85 79 84 76 70 70 44
54 59 56 61 56 47 44 40 39 39 39 39 39 40 49 49 42 37 35 39 56 68 64 60 54 46 64 72 65 54 63 78 73 66 75 80 89 78 85 82 73 64 57
70 80 77 86 78 71 47 50 45 42 43 44 42 43 45 44 48 51 54 54 53 49 44 44 52 58 64 72 67 66 62 67 71 79 85 78 86 78 75 84 80 67 63
76 78 75 80 78 78 52 50 60 56 55 52 48 44 41 40 41 40 43 43 48 58 62 69 69 77 81 79 74 69 62 58 48 53 78 78 83 74 76 84 83 78 64
74 76 70 70 69 66 65 69 66 59 58 55 48 46 47 48 47 44 43 42 51 72 71 71 74 79 82 88 92 84 77 64 50 41 54 66 81 82 82 83 80 83 74
68 58 49 42 31 44 52 72 71 72 64 63 56 48 45 48 41 39 38 37 41 61 65 70 72 65 72 82 83 81 80 80 75 66 65 67 71 87 90 89 82 82 78
58 42 35 29 26 33 59 70 76 76 71 65 59 61 57 48 47 48 37 27 34 49 55 34 56 53 50 76 84 77 75 77 90 82 69 70 70 86 90 95 98 92 86
38 34 31 28 26 45 60 73 79 82 79 68 74 70 75 66 60 27 25 24 27 24 19 24 33 31 35 44 44 59 70 82 83 84 77 85 82 84 90 95 94 94 92
32 32 29 26 30 31 57 64 70 71 68 60 52 57 49 36 36 33 23 20 21 21 24 23 24 26 25 30 35 44 62 78 82 79 79 80 85 86 86 90 90 94 95
31 28 25 27 30 28 41 66 79 80 77 70 62 60 45 36 34 33 27 28 27 23 22 25 20 19 18 16 18 28 38 55 88 87 76 73 74 79 78 79 80 81 87
29 25 26 30 30 30 28 36 42 47 53 53 47 40 32 32 30 34 38 38 37 34 34 24 20 20 18 16 17 17 32 56 51 60 73 78 81 84 84 78 75 84 82
24 25 28 31 30 30 30 30 31 33 35 35 32 31 30 30 25 27 34 49 49 43 32 22 25 26 26 24 22 22 20 19 25 31 35 50 57 71 84 97 98 89 84
24 26 30 30 31 31 32 32 31 33 38 37 34 34 33 33 38 29 29 38 49 44 33 31 36 38 34 31 30 31 32 29 29 30 34 32 29 39 49 70 82 88 87
25 28 28 29 30 32 32 33 33 35 37 40 40 38 33 34 43 40 30 29 42 45 42 40 42 42 34 37 36 37 36 34 32 32 38 40 52 53 67 71 84 81 87
25 26 26 28 28 29 31 32 33 34 35 36 41 38 36 38 41 40 43 40 38 44 46 47 47 46 40 42 46 46 38 37 37 33 36 36 59 56 50 50 48 72 92
25 25 25 28 29 30 31 29 33 34 34 35 34 35 38 44 43 44 44 43 43 44 47 49 49 48 48 50 46 50 55 43 38 42 37 32 28 32 39 44 44 44 44
26 27 28 29 30 32 34 37 36 38 37 35 35 34 35 39 43 44 44 44 44 46 50 49 51 53 57 50 48 62 58 54 36 45 50 50 53 35 29 34 43 49 51
29 29 30 30 31 33 35 38 39 40 40 39 38 36 36 36 37 45 46 47 48 52 54 56 56 57 58 59 61 58 36 40 61 65 55 53 46 46 30 26 27 38 49
31 32 33 34 34 35 36 36 38 40 41 40 40 41 39 37 36 37 44 50 53 56 59 58 63 68 71 55 38 33 36 36 26 30 50 45 30 37 27 22 26 26 48
34 35 36 37 39 40 41 44 45 46 46 46 45 44 44 42 38 37 40 51 59 61 64 69 77 76 62 68 64 62 51 34 26 35 57 54 61 37 51 44 31 33 36

GFSSE_850_rhum_015.txt.gz
RH
59 55 66 65 70 69 70 62 64 69 71 71 64 53 49 68 76 77 73 74 69 60 57 51 46 46 46 40 46 42 34 30 35 35 39 33 36 55 54 55 55 62 71
56 49 51 58 64 59 59 59 62 65 69 69 77 61 46 49 52 51 57 58 51 54 54 54 54 50 47 45 48 50 48 38 31 28 34 33 31 47 52 47 50 66 66
61 48 42 43 41 42 43 49 49 51 70 73 73 78 68 57 56 59 64 63 61 53 55 56 67 61 65 61 56 55 55 54 55 49 38 36 35 46 50 44 40 56 73
78 56 42 38 38 36 34 50 56 64 67 60 55 72 81 81 77 71 79 80 72 61 75 65 62 59 75 80 74 70 65 63 53 52 54 42 41 59 52 68 58 52 54
76 63 48 38 33 29 28 32 32 36 42 49 33 50 53 78 85 83 81 85 82 81 78 83 74 67 65 64 60 71 60 57 64 63 60 56 80 74 63 83 73 64 41
56 49 42 37 30 28 28 28 28 28 28 28 27 30 50 69 80 84 73 71 87 77 77 80 68 65 72 69 61 69 57 61 61 71 69 68 70 86 86 82 78 71 60
41 38 38 36 33 30 29 27 28 30 32 35 32 28 30 28 37 66 83 81 66 60 67 76 78 76 72 71 69 63 61 55 57 78 77 79 71 76 79 76 82 79 74
40 41 49 48 42 37 30 29 32 34 38 39 38 39 41 44 42 34 31 29 30 34 44 47 38 31 28 33 70 70 65 62 62 81 74 74 78 81 75 82 83 82 79
46 41 38 44 42 37 30 32 42 43 40 42 42 42 45 46 52 52 52 50 53 54 51 48 51 53 55 54 64 69 75 71 73 71 75 73 86 86 76 63 78 82 81
55 51 50 43 32 26 31 40 58 59 56 50 47 43 42 41 42 43 48 51 55 57 68 71 72 73 74 66 72 74 76 73 71 59 51 50 67 77 86 79 78 82 82
67 68 61 51 42 40 47 55 68 70 66 63 54 47 50 55 59 52 50 48 50 55 70 74 72 61 70 86 92 85 79 78 79 72 62 60 66 77 77 78 90 92 87
69 67 60 46 34 30 49 53 69 74 78 71 64 55 53 56 63 42 38 33 32 44 58 61 64 62 56 54 72 85 82 78 78 75 74 76 74 74 84 86 93 96 91
69 65 45 39 30 26 38 70 72 80 68 67 56 56 51 49 44 32 25 23 21 24 34 38 26 38 39 32 41 49 56 58 64 68 76 77 74 92 84 90 92 91 90
71 57 39 36 29 24 28 53 69 74 70 71 52 48 49 48 39 31 23 21 22 22 22 18 18 26 31 27 30 34 38 55 65 78 83 84 78 91 95 88 93 96 94
65 41 34 30 27 27 22 29 46 63 67 75 71 61 56 53 41 36 39 30 23 22 23 24 24 25 29 30 35 34 35 46 55 65 74 82 81 79 81 88 92 96 98
43 34 31 25 25 28 29 27 38 64 77 77 81 79 70 65 47 42 42 39 37 39 34 29 27 22 18 17 16 19 24 28 38 50 63 72 75 72 74 80 86 84 82
33 32 28 25 29 31 31 31 34 43 53 57 60 61 51 44 34 32 35 37 40 45 44 39 35 22 21 21 20 21 21 21 22 26 32 36 37 46 67 81 91 90 83
32 31 26 26 29 31 31 31 31 31 30 32 37 37 36 36 35 34 32 31 33 42 40 36 30 25 27 29 30 29 28 29 32 31 32 31 32 27 26 50 67 80 93
31 27 25 27 30 28 27 28 29 30 29 30 32 33 36 38 37 36 38 36 32 33 35 35 31 31 34 35 30 28 27 27 27 29 33 37 34 46 47 47 40 47 61
29 26 26 28 28 28 30 30 28 28 30 31 31 32 34 37 38 36 42 42 38 32 32 33 37 37 38 37 31 30 33 35 35 32 30 33 38 46 57 52 52 56 59
26 26 26 27 28 30 31 31 30 30 31 33 33 33 33 33 33 34 38 41 42 41 40 38 40 40 40 42 38 38 41 38 35 33 29 27 31 31 29 31 43 45 48
25 26 27 28 29 30 31 33 34 34 35 36 37 37 36 35 35 35 35 39 42 43 43 42 42 42 44 47 46 50 47 44 41 37 33 32 30 35 43 33 29 28 42
25 27 28 29 30 31 33 36 36 37 38 38 39 39 39 39 36 36 36 39 42 45 46 45 44 46 47 49 51 53 59 52 45 40 40 40 35 35 30 26 23 19 20
25 27 29 30 31 33 36 38 39 40 42 43 44 44 45 44 40 38 38 39 43 48 49 48 49 50 53 55 59 62 61 46 35 35 40 43 37 36 23 17 15 14 19
30 31 33 35 34 36 38 41 44 44 46 46 47 48 48 49 49 43 40 39 44 54 53 53 54 59 64 64 64 52 43 42 52 53 47 47 40 25 23 18 16 16 15
32 34 35 36 39 42 45 46 46 47 47 46 45 42 47 48 49 52 52 43 54 60 58 63 70 68 64 68 82 88 88 85 61 38 41 39 36 33 31 26 24 38 27

GFSSE_850_rhum_021.txt.gz
RH
62 71 76 80 84 88 88 84 82 75 68 67 69 70 71 74 78 78 78 76 72 67 61 54 53 52 54 55 59 59 60 62 54 45 35 29 31 37 52 55 49 41 49
58 71 79 81 84 87 88 86 79 79 76 66 61 62 69 77 82 84 82 76 69 65 59 55 54 55 51 50 54 54 52 50 47 47 40 37 30 31 47 53 48 39 50
51 52 63 67 73 74 70 74 75 74 74 75 72 60 59 72 75 77 73 69 59 58 59 57 63 69 62 60 65 65 64 62 60 59 51 45 38 36 40 45 48 56 54
46 45 46 47 47 50 54 56 64 65 67 65 67 76 73 65 62 62 60 58 56 59 60 72 81 78 70 68 88 85 82 74 72 72 66 58 45 40 49 48 48 54 64
47 38 34 35 38 38 34 35 46 46 45 41 43 37 58 83 84 81 79 75 76 73 74 79 76 72 67 67 83 93 86 85 82 63 62 69 63 54 70 51 67 61 60
46 38 32 31 31 28 27 28 27 26 28 31 36 46 62 69 75 84 84 82 78 81 80 72 70 70 68 75 78 83 90 88 67 66 60 76 76 67 80 72 72 74 67
36 34 35 33 31 28 27 26 27 28 30 33 35 37 41 45 49 54 64 73 68 54 53 54 56 60 68 74 82 80 77 79 73 71 66 66 81 74 75 76 68 74 74
37 32 32 31 32 29 27 28 31 36 39 42 42 42 42 47 50 48 45 42 44 48 50 47 43 39 39 42 53 69 77 80 76 76 70 82 87 84 72 70 76 70 77
41 40 37 37 29 27 30 31 35 34 42 47 48 48 49 51 49 50 51 52 51 52 53 56 57 57 58 61 67 73 79 81 81 78 82 80 82 79 74 73 70 79 78
55 47 46 41 33 26 28 27 25 29 46 50 48 44 42 43 44 45 48 51 48 45 41 42 61 70 73 71 65 68 77 85 82 78 72 69 60 60 66 74 68 74 80
49 50 46 34 31 24 23 25 29 26 30 32 42 42 45 42 41 48 49 40 35 23 23 33 43 46 52 40 36 40 58 74 78 75 75 72 69 62 53 55 77 77 80
50 55 53 40 33 25 24 24 27 28 29 33 36 36 45 46 43 45 45 36 29 28 26 27 34 38 32 27 32 28 29 40 61 71 63 68 73 71 65 57 66 80 84
57 59 58 47 33 28 26 27 26 26 29 34 39 41 41 44 47 50 51 46 38 29 30 28 29 28 26 29 30 28 26 26 28 26 30 35 42 57 71 67 62 79 97
48 52 58 52 31 27 28 30 32 32 34 40 45 52 55 58 58 56 54 49 40 39 36 31 28 29 28 26 26 29 27 24 26 28 32 34 41 52 70 79 75 77 85
47 51 65 57 32 26 28 29 30 35 40 44 47 47 47 49 50 51 52 51 43 36 37 35 32 33 31 29 25 20 18 18 18 20 28 30 31 50 68 77 80 76 78
46 48 61 56 31 28 30 29 29 32 36 37 37 38 40 43 43 40 37 35 32 32 33 34 32 30 31 30 27 22 21 21 22 21 21 22 22 21 26 38 50 67 73
38 49 58 58 33 29 30 30 30 30 30 32 32 32 34 35 36 37 37 36 35 32 32 33 33 34 32 28 27 24 24 26 27 28 28 28 27 26 26 26 22 21 30
49 49 59 54 33 30 31 29 30 29 29 31 32 32 33 34 34 34 34 35 36 34 36 37 38 35 32 31 29 28 29 31 30 28 28 29 30 29 28 27 28 27 27
50 47 48 46 31 31 30 29 28 29 29 31 33 35 36 37 37 37 37 36 36 36 36 38 38 37 35 35 32 31 31 32 32 30 31 34 34 32 29 27 26 26 28
38 40 46 39 31 29 29 29 30 31 34 36 38 39 40 40 41 41 41 41 40 38 36 36 37 38 39 38 37 36 36 36 35 33 32 34 35 32 30 33 36 34 29
27 36 38 32 28 29 30 31 32 33 34 36 38 40 41 42 43 44 44 45 43 43 42 40 39 41 42 42 42 41 40 40 40 40 38 37 37 36 34 38 39 39 36
26 32 32 31 32 34 35 35 36 35 35 36 38 42 45 46 47 48 47 47 49 49 46 46 47 48 46 43 44 55 55 52 46 44 44 43 40 41 39 39 40 43 43
28 30 31 34 36 36 36 36 38 40 41 41 42 46 47 49 49 48 45 47 47 46 50 52 49 51 55 51 48 50 55 54 52 47 46 46 50 45 43 43 44 46 46
32 33 34 35 37 39 42 46 49 50 50 49 48 48 46 43 44 45 46 47 48 48 48 50 57 53 54 67 66 53 51 52 58 53 54 50 50 47 46 46 48 50 50
38 40 42 43 45 48 50 49 48 48 46 44 41 39 37 32 30 29 34 45 46 45 45 48 52 59 65 75 77 70 61 61 68 64 55 58 52 49 50 54 58 59 59
49 48 48 48 47 45 45 47 51 52 45 38 35 31 28 26 26 30 38 42 42 43 46 55 63 79 87 91 88 83 77 74 74 77 77 74 80 87 77 73 67 62 54